[[{"header":{"parameterUnit":"m.s-1","parameterCategory":1,"la1":30.2991,"la2":30.254,"lo1":-89.0895,"lo2":-89.0444,"dy":0.0017,"dx":0.0017,"nx":28,"ny":28,"refTime":"2024-07-14T21:00:00:Z","depth":0,"parameterNumber":2,"parameterNumberName":"U-component_of_WINDS"},"data":[0,0,0,0,0,0,0,0,0,0,0,0,0,0,0,0,0,0,0,0,0,0,0,0,0,0,0,0,0,0,0,0,0,0,0,0,0,0,0,0,0,0,0,0,0,0,0,0,0,0,0,0,0,0,0,0,0,0,2.6923,2.6924,0,2.6993,2.6994,2.6995,2.6877,2.6873,2.6869,2.6865,2.6945,2.6951,2.6956,0,0,0,0,0,0,0,0,0,0,0,0,0,2.6692,2.6696,2.6923,2.6924,2.6925,2.6993,2.6994,2.6995,2.6878,2.6873,2.6868,2.6863,2.6943,2.695,2.6957,0,0,0,0,0,0,0,0,0,0,0,0,0,2.678,2.6698,2.6923,2.6874,2.687,2.6993,2.6994,2.6995,2.6879,2.6873,2.6867,2.6861,2.6941,2.6949,2.6958,2.7133,0,0,2.6985,2.6989,0,0,0,0,0,0,0,0,2.6775,2.6789,2.688,2.6878,2.6874,2.692,2.6942,2.7042,2.688,2.6876,2.6865,2.6858,2.6942,2.695,2.6977,2.7137,2.7141,2.6986,2.6991,2.6995,2.6997,0,0,0,0,0,0,0,2.6769,2.6785,2.6951,2.6882,2.6878,2.685,2.6856,2.696,2.6942,2.6876,2.6867,2.6877,2.6939,2.6969,2.6978,2.7142,2.6985,2.6993,2.6999,2.7002,2.7445,2.7452,0,0,0,0,0,0,2.6768,2.6781,2.6949,2.6953,2.6808,2.6859,2.6866,2.6911,2.6941,2.6939,2.6882,2.6871,2.6957,2.6968,2.6981,2.7185,2.6995,2.7003,2.7008,2.7439,2.7447,2.7454,0,0,0,0,0,0,2.6764,2.6784,2.6946,2.6865,2.6883,2.687,2.6922,2.6916,2.6945,2.6945,2.6942,2.6915,2.6952,2.6968,2.7095,2.7186,2.7007,2.7015,2.7431,2.7441,2.745,2.7597,0,0,0,0,0,0,2.6758,2.6784,2.6849,2.6867,2.6888,2.7058,2.6927,2.6922,2.696,2.6947,2.6976,2.6975,2.6949,2.7082,2.7104,2.7195,2.7022,2.7423,2.7436,2.7447,2.7584,2.761,2.7633,0,0,0,0,0,2.675,2.689,2.6853,2.6874,2.6969,2.7064,2.7076,2.7041,2.6968,2.7034,2.7033,2.6974,2.7173,2.7096,2.7119,2.7215,2.7417,2.7432,2.7446,2.7573,2.7605,2.7632,0,0,0,0,0,0,2.6887,2.6892,2.6851,2.7001,2.7032,2.7043,2.7126,2.7077,2.7132,2.7117,2.7074,2.7081,2.7217,2.7229,2.7143,2.7384,2.7283,2.7303,2.7371,2.7402,2.7426,2.742,2.7029,0,0,0,0,0,2.6934,2.7008,2.7009,2.7142,2.7159,2.714,2.718,2.715,2.7182,2.7195,2.7204,2.7239,2.7309,2.7356,2.7421,2.7585,2.7589,2.7662,2.7686,2.7707,2.7724,2.7808,2.784,2.7502,2.7502,2.7501,0,0,2.7034,2.7045,2.7095,2.7169,2.719,2.7269,2.7152,2.7242,2.7299,2.721,2.7328,2.7336,2.7372,2.7517,2.7582,2.7532,2.7818,2.7725,2.7741,2.7748,2.7827,2.7859,2.7887,2.7512,2.751,2.7508,0,0,2.7254,2.7271,2.738,2.7403,2.7434,2.742,2.7447,2.7465,2.7465,2.7583,2.7516,2.7586,2.7708,2.7735,2.7765,2.7992,2.7939,2.8015,2.8144,2.8227,2.8253,2.8276,2.8355,2.8384,2.8033,2.8033,2.8033,0,2.7373,2.7487,2.7444,2.7536,2.757,2.7489,2.76,2.7625,2.7678,2.7703,2.7645,2.7794,2.7813,2.7962,2.8016,2.8045,2.8073,2.8011,2.8252,2.8275,2.8297,2.8371,2.8401,2.8042,2.8041,2.804,2.8039,0,2.7632,2.7712,2.7797,2.7845,2.7889,2.7991,2.7964,2.8014,2.7979,2.7972,2.8091,2.8111,2.8176,2.821,2.8179,2.8354,2.8321,2.8259,2.8156,2.8338,2.8407,2.8436,2.8055,2.8051,2.8049,2.8047,0,0,2.7941,2.7962,2.7994,2.8013,2.8041,2.8102,2.82,2.8261,2.8303,2.8342,2.8422,2.8526,2.8467,2.8501,2.8472,2.8545,2.872,2.8474,2.8474,2.8517,2.8911,2.8956,2.899,2.8685,2.8691,2.8695,2.8907,0,2.8158,2.8322,2.8285,2.8448,2.852,2.8443,2.8528,2.8555,2.855,2.8611,2.8607,2.8679,2.8598,2.8617,2.8686,2.8685,2.8799,2.8669,2.8759,2.8763,2.8751,2.9027,2.9075,2.9275,2.8934,2.8939,2.8942,0,2.8433,2.8477,2.8646,2.8658,2.8688,2.8764,2.8815,2.8875,2.8903,2.8894,2.8931,2.8887,2.8984,2.8881,2.9013,2.8926,2.896,2.8965,2.8972,2.8978,2.8863,2.9038,2.9338,2.9367,2.8985,2.8981,2.8978,0,2.8638,2.8741,2.8854,2.8874,2.8892,2.8947,2.8958,2.898,2.9018,2.9063,2.9087,2.9145,2.9176,2.9222,2.9195,2.9123,2.9332,2.9227,2.9327,2.9327,2.9374,2.9371,2.9681,2.94,2.9399,2.9399,2.9398,0,2.8882,2.8988,2.8946,2.9016,2.9132,2.9088,2.9205,2.9207,2.9227,2.9296,2.9235,2.9301,2.9262,2.9326,2.9306,2.9417,2.9433,2.9429,2.9422,2.9433,2.9433,2.9454,2.9439,2.9406,2.9405,2.9403,2.9402,0,2.9131,2.9107,2.9225,2.9231,2.9235,2.9321,2.9326,2.9391,2.938,2.9469,2.9487,2.9471,2.9543,2.952,2.9599,2.9585,2.9725,2.9702,2.9715,2.9708,2.9808,2.9799,3.0142,3.0184,2.9877,2.988,2.9883,0,2.9288,2.9367,2.938,2.942,2.9434,2.9501,2.9538,2.9498,2.9539,2.9576,2.9636,2.9702,2.9751,2.987,2.9866,2.9925,2.9901,3.0017,2.991,2.9918,2.99,2.9895,2.9902,3.0039,3.0042,3.0045,3.0048,0,2.9568,2.9551,2.9605,2.9655,2.97,2.9738,2.9771,2.9808,2.977,2.982,2.989,2.9928,3.0006,3.0071,3.0124,3.0136,3.0086,3.0081,3.0107,3.0119,3.0122,3.0119,2.9771,3.0074,3.0071,3.0069,3.0068,3.0067,2.9773,2.9839,2.9857,2.9919,2.9938,2.997,3.003,3.0025,3.0082,3.0139,3.0113,3.0194,3.0219,3.0283,3.0303,3.0366,3.0321,3.036,3.0369,3.0379,3.039,3.0113,3.0376,3.0375,3.0374,3.0374,3.0373,0,3.0048,3.0055,3.0112,3.0157,3.0206,3.0151,3.0184,3.0229,3.03,3.0325,3.0374,3.0454,3.0516,3.0517,3.0575,3.0625,3.0603,3.0642,3.0637,3.064,3.0428,3.0398,3.0658,3.0658,3.0658,3.0658,3.0658,3.0658,3.0196,3.0302,3.0287,3.0402,3.0409,3.0485,3.0508,3.0537,3.0556,3.0647,3.0697,3.0696,3.0711,3.0769,3.0823,3.0822,3.0845,3.0892,3.0882,3.0684,3.0655,3.0628,3.06,3.0898,3.0898,3.1088,3.109,3.1091]},{"header":{"parameterUnit":"m.s-1","parameterCategory":1,"la1":30.2991,"la2":30.254,"lo1":-89.0895,"lo2":-89.0444,"dy":0.0017,"dx":0.0017,"nx":28,"ny":28,"refTime":"2024-07-14T21:00:00:Z","depth":0,"parameterNumber":3,"parameterNumberName":"V-component_of_WINDS"},"data":[0,0,0,0,0,0,0,0,0,0,0,0,0,0,0,0,0,0,0,0,0,0,0,0,0,0,0,0,0,0,0,0,0,0,0,0,0,0,0,0,0,0,0,0,0,0,0,0,0,0,0,0,0,0,0,0,0,0,1.7013,1.7013,0,1.7007,1.7007,1.7007,1.6918,1.6915,1.6913,1.6911,1.6905,1.6907,1.6909,0,0,0,0,0,0,0,0,0,0,0,0,0,1.6948,1.6949,1.7013,1.7013,1.7013,1.7007,1.7007,1.7007,1.6918,1.6915,1.6913,1.691,1.6904,1.6906,1.6909,0,0,0,0,0,0,0,0,0,0,0,0,0,1.6962,1.695,1.7013,1.6968,1.6964,1.7007,1.7007,1.7007,1.6919,1.6915,1.6912,1.6909,1.6903,1.6906,1.6909,1.6995,0,0,1.6918,1.6919,0,0,0,0,0,0,0,0,1.6962,1.6965,1.6975,1.6971,1.6967,1.696,1.6981,1.7003,1.692,1.6936,1.6911,1.6907,1.6926,1.6927,1.6933,1.6995,1.6994,1.6918,1.692,1.6921,1.6922,0,0,0,0,0,0,0,1.6961,1.6965,1.7011,1.6975,1.697,1.6948,1.6946,1.6985,1.695,1.6934,1.6928,1.6928,1.6923,1.693,1.6932,1.6994,1.6918,1.6921,1.6922,1.6924,1.7125,1.7129,0,0,0,0,0,0,1.6966,1.6964,1.7011,1.701,1.6956,1.6952,1.695,1.6965,1.6949,1.6944,1.6931,1.6924,1.6927,1.6929,1.6932,1.703,1.6921,1.6924,1.6926,1.7122,1.7126,1.713,0,0,0,0,0,0,1.6965,1.6971,1.7011,1.6986,1.6989,1.6957,1.6975,1.6967,1.6974,1.6947,1.694,1.6945,1.6924,1.6927,1.698,1.7028,1.6925,1.6928,1.7117,1.7123,1.7128,1.7228,0,0,0,0,0,0,1.6964,1.6971,1.7003,1.6987,1.6991,1.706,1.6978,1.6969,1.6979,1.697,1.6958,1.6953,1.6922,1.6976,1.6983,1.703,1.693,1.7113,1.712,1.7126,1.722,1.7236,1.7249,0,0,0,0,0,1.6962,1.7032,1.7006,1.7012,1.703,1.7062,1.7064,1.7027,1.6984,1.7016,1.6998,1.6953,1.7023,1.6982,1.6989,1.7038,1.711,1.7118,1.7126,1.7213,1.7233,1.7249,0,0,0,0,0,0,1.7054,1.7029,1.6999,1.7067,1.7068,1.7047,1.7086,1.7049,1.7062,1.7053,1.7007,1.7005,1.7064,1.7057,1.7012,1.712,1.7058,1.7068,1.7122,1.7141,1.7155,1.7154,1.6933,0,0,0,0,0,1.7083,1.7111,1.7087,1.7149,1.7151,1.7119,1.7132,1.7103,1.7102,1.7102,1.7088,1.7089,1.711,1.7125,1.7144,1.7219,1.7215,1.7257,1.7272,1.7284,1.7292,1.733,1.7348,1.7157,1.7157,1.7156,0,0,1.7142,1.7131,1.7152,1.7167,1.7165,1.7194,1.712,1.7155,1.7176,1.7107,1.7155,1.7145,1.7143,1.7207,1.7234,1.7202,1.7345,1.7294,1.7304,1.7306,1.7341,1.7359,1.7375,1.7162,1.7161,1.716,0,0,1.7263,1.7259,1.7309,1.7308,1.7305,1.7283,1.7296,1.7282,1.7272,1.732,1.7268,1.7294,1.7333,1.7333,1.7338,1.7461,1.742,1.7469,1.7545,1.7583,1.7598,1.7611,1.7653,1.7669,1.7478,1.7478,1.7478,0,1.7336,1.7379,1.734,1.7378,1.7386,1.7325,1.7375,1.7377,1.738,1.7387,1.7352,1.7398,1.7393,1.7455,1.7485,1.7492,1.7504,1.7468,1.7599,1.7612,1.7623,1.7663,1.7679,1.7484,1.7483,1.7482,1.7482,0,1.7468,1.7499,1.754,1.7544,1.7558,1.7602,1.7569,1.7587,1.7558,1.754,1.7589,1.7581,1.7596,1.7609,1.7581,1.7668,1.7648,1.7607,1.7543,1.7648,1.7684,1.7699,1.7492,1.749,1.7488,1.7487,0,0,1.7646,1.7629,1.7644,1.7645,1.7638,1.7661,1.7703,1.7718,1.7733,1.7739,1.7771,1.7806,1.7768,1.7774,1.7746,1.778,1.7876,1.7734,1.7733,1.7759,1.7969,1.7998,1.8017,1.785,1.7852,1.7855,1.7968,0,1.7761,1.783,1.7797,1.787,1.7897,1.7841,1.7878,1.7877,1.7862,1.7883,1.7867,1.7892,1.784,1.7843,1.7874,1.7858,1.7917,1.7849,1.7878,1.788,1.7878,1.8036,1.8067,1.8174,1.7983,1.7985,1.7987,0,1.7904,1.7915,1.7991,1.7979,1.7989,1.8022,1.8033,1.8055,1.8053,1.804,1.8048,1.8012,1.8051,1.7991,1.8044,1.7999,1.801,1.8004,1.8007,1.8006,1.7938,1.8037,1.8208,1.8223,1.8009,1.8007,1.8006,0,1.8023,1.8058,1.8107,1.811,1.8098,1.8122,1.8118,1.8113,1.8124,1.8135,1.8141,1.8156,1.8164,1.8176,1.8145,1.8104,1.8203,1.814,1.8192,1.8193,1.8213,1.8212,1.8386,1.8224,1.8224,1.8224,1.8224,0,1.8154,1.8203,1.816,1.8191,1.8243,1.8205,1.8258,1.8247,1.8244,1.8271,1.8225,1.8251,1.821,1.8233,1.8209,1.8256,1.8261,1.8251,1.8243,1.8253,1.8254,1.8258,1.8248,1.8228,1.8227,1.8226,1.8226,0,1.8295,1.8269,1.8319,1.8303,1.83,1.834,1.8326,1.8353,1.8336,1.8371,1.8377,1.835,1.8374,1.8346,1.8368,1.8352,1.8415,1.8398,1.8415,1.841,1.8463,1.8457,1.8643,1.8664,1.8492,1.8493,1.8495,0,1.8378,1.8414,1.8403,1.8418,1.8416,1.8441,1.8453,1.8417,1.843,1.8432,1.8459,1.848,1.8493,1.8535,1.8517,1.8533,1.8515,1.8579,1.8517,1.8526,1.8513,1.851,1.8513,1.8591,1.8593,1.8594,1.8596,0,1.8529,1.8515,1.8533,1.8547,1.8562,1.8571,1.8577,1.8592,1.8555,1.8572,1.8597,1.8608,1.863,1.8651,1.8662,1.8658,1.8621,1.8616,1.8628,1.8638,1.8645,1.864,1.8447,1.8611,1.861,1.8608,1.8608,1.8607,1.8642,1.8671,1.8667,1.8689,1.869,1.8697,1.8721,1.8708,1.8727,1.8742,1.8721,1.8751,1.8749,1.876,1.8761,1.8783,1.8756,1.8775,1.8779,1.8783,1.879,1.8644,1.8786,1.8785,1.8785,1.8784,1.8784,0,1.8789,1.8784,1.8805,1.8814,1.8831,1.8796,1.8801,1.8817,1.8844,1.8846,1.8861,1.8889,1.8909,1.8893,1.891,1.8931,1.8914,1.8936,1.8933,1.8932,1.8815,1.8802,1.895,1.895,1.895,1.8949,1.8949,1.8949,1.8866,1.8913,1.8899,1.8945,1.894,1.8969,1.8975,1.8981,1.8981,1.9015,1.9031,1.9021,1.9016,1.9032,1.9048,1.9043,1.905,1.9078,1.9067,1.8957,1.8941,1.8925,1.8912,1.9081,1.9081,1.9182,1.9183,1.9184]}]]